Nadi, Fiji

1:06 PM +12 on March 27, 2017 (GMT +1200)
Nadi International

Weather History for NFFN - October, 2012

Change the Weather History Date:

Tuesday, October 16, 2012

  Actual Average Record
Temperature  
Mean Temperature 78 °F -  
Max Temperature 84 °F 84 °F 89 °F (2008)
Min Temperature 73 °F 69 °F 64 °F (1997)
Cooling Degree Days 14    
Growing Degree Days 28 (Base 50)    
Moisture  
Dew Point 74 °F    
Average Humidity 88    
Maximum Humidity 100    
Minimum Humidity 65    
Precipitation  
Precipitation 0.71 in 0.16 in - ()
Sea Level Pressure  
Sea Level Pressure 29.93 in    
Wind  
Wind Speed 3 mph ()    
Max Wind Speed 13 mph    
Max Gust Speed -    
Visibility 10.9 miles    
Events Rain    
Averages and records for this station are not official NWS values.
T = Trace of Precipitation, MM = Missing Value Source: Averaged Metar Reports

Daily Weather History Graph

Daily Weather History Graph

Search for Another Location

Airport or City:

Trip Planner

Search our weather history database for the weather conditions in past years. The results will help you decide how hot, cold, wet, or windy it might be!

Date:

Astronomy

Oct. 16, 2012 Rise Set
Actual Time 5:40 AM +12 6:10 PM +12
Civil Twilight 5:18 AM +12 6:33 PM +12
Nautical Twilight 4:53 AM +12 6:58 PM +12
Astronomical Twilight 4:26 AM +12 7:24 PM +12
Moon 5:48 AM +12 (10/16) 6:52 PM +12 (10/16)
Length of Visible Light 13h 14m
Length of Day
12h 30m
New Moon, 0% of the Moon is Illuminated
Oct 16
New Moon
Oct 22
First Quarter
Oct 30
Full
Nov 7
Last Quarter
Nov 14
New

Hourly Weather History & Observations

Time (+12) Temp. Heat Index Dew Point Humidity Pressure Visibility Wind Dir Wind Speed Gust Speed Precip Events Conditions
12:00 AM 75.2 °F - 73.4 °F 94% 29.98 in 24.9 mi ESE 4.6 mph - N/A   Scattered Clouds
1:00 AM 75.2 °F - 73.4 °F 94% 29.95 in 24.9 mi Calm Calm - N/A   Scattered Clouds
2:00 AM 75.2 °F - 73.4 °F 94% 29.92 in 24.9 mi Calm Calm - N/A   Partly Cloudy
3:00 AM 74 °F - 73 °F 94% 29.92 in 12 mi East 4.6 mph - -   Partly Cloudy
3:00 AM 75.2 °F - 73.4 °F 94% 29.92 in 24.9 mi East 4.6 mph - N/A   Scattered Clouds
4:00 AM 75.2 °F - 71.6 °F 89% 29.89 in 24.9 mi ESE 5.8 mph - N/A   Scattered Clouds
5:00 AM 75.2 °F - 71.6 °F 89% 29.89 in 24.9 mi East 4.6 mph - N/A   Mostly Cloudy
6:00 AM 74 °F - 72 °F 91% 29.93 in 12 mi Calm Calm - -   Partly Cloudy
6:00 AM 75.2 °F - 71.6 °F 89% 29.92 in 28.0 mi Calm Calm - N/A   Mostly Cloudy
7:00 AM 77.0 °F - 73.4 °F 89% 29.95 in 31.1 mi Calm Calm - N/A   Mostly Cloudy
8:00 AM 78.8 °F - 73.4 °F 83% 29.95 in 31.1 mi Calm Calm - N/A   Mostly Cloudy
9:00 AM 82 °F - 72 °F 65% 29.98 in 31 mi SSW 5.8 mph - -   Partly Cloudy
9:00 AM 82.4 °F 87.2 °F 71.6 °F 70% 29.98 in 31.1 mi SSW 5.8 mph - N/A   Mostly Cloudy
10:00 AM 82.4 °F 88.2 °F 73.4 °F 74% 29.98 in 31.1 mi WSW 4.6 mph - N/A   Mostly Cloudy
11:00 AM 82.4 °F 89.5 °F 75.2 °F 79% 29.98 in 31.1 mi WNW 5.8 mph - N/A   Mostly Cloudy
12:00 PM 83 °F - 76 °F 73% 29.93 in 31 mi WNW 5.8 mph - -   Partly Cloudy
12:00 PM 84.2 °F 92.3 °F 75.2 °F 74% 29.92 in 31.1 mi WNW 5.8 mph - N/A   Mostly Cloudy
1:00 PM 84.2 °F 94.1 °F 77.0 °F 79% 29.89 in 31.1 mi WNW 10.4 mph - N/A   Mostly Cloudy
2:00 PM 84.2 °F 94.1 °F 77.0 °F 79% 29.89 in 31.1 mi WNW 12.7 mph - N/A   Mostly Cloudy
3:00 PM 82 °F - 75 °F 73% 29.89 in 12 mi West 6.9 mph - -   Mostly Cloudy
3:00 PM 82.4 °F 89.5 °F 75.2 °F 79% 29.89 in 24.9 mi West 6.9 mph - N/A   Mostly Cloudy
3:30 PM 78.8 °F - 77.0 °F 94% 29.89 in 4.3 mi SSE 6.9 mph - N/A Rain Rain
4:00 PM 75.2 °F - 75.2 °F 100% 29.89 in 4.3 mi ESE 3.5 mph - N/A Rain Rain
5:00 PM 75.2 °F - 73.4 °F 94% 29.89 in 18.6 mi East 3.5 mph - N/A   Mostly Cloudy
6:00 PM 74 °F - 74 °F 100% 29.92 in 12 mi East 5.8 mph - - Rain Light Rain
6:00 PM 75.2 °F - 73.4 °F 94% 29.92 in 24.9 mi East 5.8 mph - N/A Rain Light Rain
7:00 PM 73.4 °F - 73.4 °F 100% 29.92 in 24.9 mi ESE 4.6 mph - N/A   Scattered Clouds
8:00 PM 75.2 °F - 73.4 °F 94% 29.92 in 24.9 mi Calm Calm - N/A   Scattered Clouds
9:00 PM 74 °F - 74 °F 99% 29.96 in 12 mi Calm Calm - -   Partly Cloudy
9:00 PM 75.2 °F - 73.4 °F 94% 29.95 in 24.9 mi Calm Calm - N/A   Scattered Clouds
10:00 PM 75.2 °F - 73.4 °F 94% 29.95 in 24.9 mi Calm Calm - N/A   Scattered Clouds
11:00 PM 73.4 °F - 73.4 °F 100% 29.95 in 28.0 mi Calm Calm - N/A   Scattered Clouds